Regional Weather Roundup
Issued by NWS Jackson, KY

Home | Current Version | Previous Version | Graphics & Text | Print | Product List | Glossary On
Versions: 1 2 3 4 5 6 7 8 9 10 11 12 13 14 15 16 17 18 19 20 21 22 23 24 25 26 27 28 29 30 31 32 33 34 35 36 37 38 39 40 41 42 43 44 45 46 47 48 49 50
007
ASUS43 KJKL 231910
RWRJKL

EAST KENTUCKY HOURLY WEATHER ROUNDUP
NATIONAL WEATHER SERVICE JACKSON KY
300 PM EDT SUN JUL 23 2017

NOTE: "FAIR" INDICATES FEW OR NO CLOUDS BELOW 12,000 FEET WITH
NO SIGNIFICANT WEATHER AND/OR OBSTRUCTIONS TO VISIBILITY.

* THESE REPORTS ARE NOT UNDER NWS QUALITY CONTROL AND MAY NOT
  REPORT WEATHER SUCH AS PRECIPITATION AND FOG.

KYZ079-080-083-085-087-088-110-112-115-119-120-232000
...EASTERN KENTUCKY...

CITY           SKY/WX    TMP DP  RH WIND       PRES   REMARKS
JACKSON        CLOUDY    81  67  62 VRB3      29.90F
LONDON         MOSUNNY   86  63  45 VRB6      29.91F
SOMERSET*      CLOUDY    84  63  48 S10       29.89F
MONTICELLO*    PTSUNNY   87  71  58 E8        29.90F HX  93
WILLIAMSBURG*  PTCLDY    84  68  58 CALM      29.91F
MIDDLESBORO*   MOSUNNY   90  70  52 S5        29.90S HX  95
HARLAN APT*    CLOUDY    86  64  48 CALM      29.93S
PIKE CO APT*     N/A     81  69  68 S6        29.91F
BIG SANDY APT* CLOUDY    82  69  65 SW3       29.89S
MOREHEAD APT*  CLOUDY    79  68  69 S8        29.86F
ASHLAND*         N/A    N/A N/A N/A MISG        N/A
$$

KYZ035-036-041-042-044-050-067-078-099-232000
...CENTRAL KENTUCKY...

CITY           SKY/WX    TMP DP  RH WIND       PRES   REMARKS
MT STERLING*   CLOUDY    79  70  73 SW12      29.86F
FLEMING/MASON* CLOUDY    77  69  76 S8        29.84R
DANVILLE*      CLOUDY    82  72  69 S8        29.88F
LEXINGTON      CLOUDY    81  70  69 S14G21    29.83F
FRANKFORT      CLOUDY    82  70  66 SW13      29.84R
LOUISVILLE     PTSUNNY   84  71  65 W7        29.85R
LEBANON*         N/A     82  68  61 S9        29.87F
GLASGOW*       CLOUDY    88  69  54 CALM      29.88S HX  92
BOWLING GREEN  MOSUNNY   87  71  58 CALM      29.87F HX  93
$$

KYZ091>093-OHZ055-061-077-WVZ005-015-034-035-042-232000
...SOUTHERN OHIO/WEST VIRGINIA...

CITY           SKY/WX    TMP DP  RH WIND       PRES   REMARKS
COVINGTON      PTSUNNY   80  74  81 SW6       29.84R
COLUMBUS       CLOUDY    78  72  81 N6        29.75F
DAYTON         CLOUDY    78  72  81 W13       29.81S
WILMINGTON     CLOUDY    76  73  91 SW8       29.82R
HUNTINGTON     CLOUDY    81  69  67 S9        29.85F
CHARLESTON     CLOUDY    82  67  60 SW7       29.85F
PINEVILLE*     CLOUDY    81  69  67 MISG      29.98F
BECKLEY        PTSUNNY   80  64  58 VRB5      29.97F
BLUEFIELD      CLOUDY    79  59  50 NW12G18   30.01F
LOGAN CO APT*    N/A     81  68  65 CALM      29.89F
$$

VAZ002-007-008-TNZ017-027-036-066-071-232000
...SOUTHWEST VIRGINIA/EAST TENNESSEE...

CITY           SKY/WX    TMP DP  RH WIND       PRES   REMARKS
WISE*          CLOUDY    81  63  54 NW3       30.00F
JONESVILLE*      N/A     90  68  48 W6        29.93F HX  93
ABINGDON*      CLOUDY    86  69  55 W3        29.96F HX  90
BRISTOL        CLOUDY    83  74  74 S5        29.93F
MORRISTOWN*    PTCLDY    91  72  52 NW7G13    29.90F HX  98
SEVIERVILLE*   CLEAR     91  72  52 SW7       29.89F HX  98
KNOXVILLE      CLOUDY    87  72  60 SW9       29.90F HX  93
LAFOLLETTE*    PTCLDY    90  73  58 SW7       29.92F HX  98
OAK RIDGE      CLOUDY    88  72  58 VRB7      29.91F HX  94
CROSSVILLE     CLOUDY    81  74  79 S6        29.97F
NASHVILLE      PTSUNNY   93  75  55 VRB5      29.88S HX 104
$$

...KEY TO REMARKS...
VSB - VISIBILITY IN MILES
WCI - WIND CHILL INDEX
HX  - HEAT INDEX

$$




USA.gov is the U.S. government's official web portal to all federal, state and local government web resources and services.